Regional Weather Roundup
Issued by NWS

Home | Current Version | Previous Version | Graphics & Text | Print | Product List | Glossary On
Versions: 1 2 3 4 5 6 7 8 9 10 11 12 13 14 15 16 17 18 19 20 21 22 23 24 25 26 27 28 29 30 31 32 33 34 35 36 37 38 39 40 41 42 43 44 45 46 47 48 49 50
000
ASUS43 KDTX 121210
RWRMI
MICHIGAN HOURLY REGIONAL WEATHER ROUNDUP
NATIONAL WEATHER SERVICE DETROIT/PONTIAC MI
700 AM EST TUE DEC 12 2017

NOTE: "FAIR" INDICATES FEW OR NO CLOUDS BELOW 12,000 FEET WITH NO
SIGNIFICANT WEATHER AND/OR OBSTRUCTION TO VISIBILITY.

MIZ047>049-052>055-059>063-066>070-074>076-081>083-121300-
SOUTHEAST LOWER MICHIGAN

CITY           SKY/WX    TMP DP  RH WIND       PRES   REMARKS
ADRIAN         MOCLDY    21   9  59 N15G29    29.83R WCI   8
6HR MIN TEMP:  21; 6HR MAX TEMP:  31; 6HR PCP: TRACE;

ALMA           PTCLDY    17   9  69 NW10      29.85R WCI   5
6HR MIN TEMP:  17; 6HR MAX TEMP:  28;

ANN ARBOR      PTCLDY    20   8  60 NW15G32   29.80R WCI   6
BAD AXE        CLOUDY    17   8  68 NW21G31   29.74R WCI   0
6HR MIN TEMP:  17; 6HR MAX TEMP:  27;

CARO           CLOUDY    18   9  66 NW17G26   29.77R WCI   3
DETROIT CITY   CLOUDY    22  12  65 NW15G26   29.77R WCI   9
6HR MIN TEMP:  22; 6HR MAX TEMP:  31; 6HR PCP: TRACE;

DETROIT        FLURRIES  24  11  57 NW22G32   29.79R WCI   9
6HR MIN TEMP:  24; 6HR MAX TEMP:  32; 6HR PCP:  0.01;

FLINT          CLOUDY    18  10  71 NW16G25   29.80R WCI   3
6HR MIN TEMP:  18; 6HR MAX TEMP:  29; 6HR PCP:  0.01;

GROSSE ILE     CLOUDY    24  13  64 NW23G30   29.77R WCI   8
6HR MIN TEMP:  24; 6HR MAX TEMP:  31;

HILLSDALE      PTCLDY    19   9  63 NW16G26   29.81R WCI   5
HOWELL         MOCLDY    19   9  66 NW14G25   29.80R WCI   5
6HR MIN TEMP:  19; 6HR MAX TEMP:  30;


CITY           SKY/WX    TMP DP  RH WIND       PRES   REMARKS
JACKSON        FLURRIES  20  12  71 NW10G18   29.83R WCI   9
6HR MIN TEMP:  20; 6HR MAX TEMP:  31; 6HR PCP: TRACE;

LAMBERTVILLE   LGT SNOW  23  17  78 NW13G23   29.81R WCI  11
6HR MIN TEMP:  23; 6HR MAX TEMP:  32;

LANSING        PTCLDY    18   9  68 NW14G23   29.85R WCI   4
6HR MIN TEMP:  18; 6HR MAX TEMP:  29; 6HR PCP: TRACE;

LAPEER         FAIR      18   8  63 NW13G21   29.77R WCI   5
6HR MIN TEMP:  18; 6HR MAX TEMP:  29;

MASON          CLEAR     19   7  58 NW14G21   29.83R WCI   6
6HR MIN TEMP:  19; 6HR MAX TEMP:  31;

MONROE         CLOUDY    23   9  55 NW25G32   29.79R WCI   7
6HR MIN TEMP:  23; 6HR MAX TEMP:  31;

MT. CLEMENS    PTCLDY    21  11  64 NW20G28   29.74R WCI   6
6HR MIN TEMP:  21; 6HR MAX TEMP:  31; 6HR PCP: TRACE;

PONTIAC        MOCLDY    19  10  68 NW21G30   29.75R WCI   3
6HR MIN TEMP:  19; 6HR MAX TEMP:  30; 6HR PCP: TRACE;

PORT HOPE        N/A     20  11  68 NW29G44   29.71R WCI   1
6HR MIN TEMP:  19; 6HR MAX TEMP:  30;

PORT HURON     CLEAR     19   9  63 W13G23    29.73R WCI   7
TRI CITIES     CLEAR     16   7  67 NW17      29.82R WCI   0
6HR MIN TEMP:  16; 6HR MAX TEMP:  28; 6HR PCP: TRACE;

MIDLAND        FAIR      17   6  61 NW13G23   29.83R WCI   4
6HR MIN TEMP:  17; 6HR MAX TEMP:  28;

TROY           LGT SNOW  23  15  71 NW13G23   29.79R WCI  11
SAGINAW HB     PTCLDY    18   7  62 NW17G28   29.81R WCI   2
$$
MIZ043>046-050>051-056>058-064>065-071>073-077>080-121300-
SOUTHWEST LOWER MICHIGAN

CITY           SKY/WX    TMP DP  RH WIND       PRES   REMARKS
BATTLE CREEK   CLEAR     19   8  62 NW14G24   29.87R WCI   6
6HR MIN TEMP:  18; 6HR MAX TEMP:  30; 6HR PCP: TRACE;

BENTON HARBOR  MOCLDY    25   8  48 NW12G30   29.94R HAZE    WCI  14
6HR MIN TEMP:  24; 6HR MAX TEMP:  34; 6HR PCP:  0.01;

BIG RAPIDS     LGT SNOW  16  11  82 NW9       29.85R WCI   4
6HR MIN TEMP:  16; 6HR MAX TEMP:  24;

COLDWATER      CLEAR     19   9  63 NW10G18   29.86R WCI   8
6HR MIN TEMP:  19; 6HR MAX TEMP:  32;

FREMONT        CLOUDY    18  12  79 NW18G28   29.90R WCI   2
6HR MIN TEMP:  17; 6HR MAX TEMP:  26;

HOLLAND        LGT SNOW  20  16  84 N12G18    29.93R VSB 1   WCI   8
6HR MIN TEMP:  20; 6HR MAX TEMP:  31; 6HR PCP:  0.03;

GRAND RAPIDS   PTCLDY    19  11  70 NW22G31   29.89R WCI   2
6HR MIN TEMP:  19; 6HR MAX TEMP:  27; 6HR PCP: TRACE;

IONIA          FLURRIES  19  13  79 NW9       29.86R WCI   8
6HR MIN TEMP:  19; 6HR MAX TEMP:  29;

KALAMAZOO      PTCLDY    19   9  65 NW15      29.90R WCI   5
6HR MIN TEMP:  19; 6HR MAX TEMP:  31; 6HR PCP: TRACE;

LUDINGTON      CLOUDY    19   6  58 N21G29    29.92S WCI   2
6HR MIN TEMP:  19; 6HR MAX TEMP:  24;

MARSHALL       CLEAR     19   9  67 NW7G17    29.86R WCI   9
6HR MIN TEMP:  19; 6HR MAX TEMP:  30;

MOUNT PLEASANT FLURRIES  18  11  75 NW7G17    29.83R WCI   8
6HR MIN TEMP:  18; 6HR MAX TEMP:  28;

MUSKEGON       LGT SNOW  20  12  71 N20G30    29.94R BLWGSNOWWCI   4
6HR MIN TEMP:  20; 6HR MAX TEMP:  27; 6HR PCP: TRACE;

SOUTH HAVEN    LGT SNOW  24  19  80 NW22G32   29.93R VSB 1   WCI   9
$$
MIZ016>042-121300-
NORTHERN LOWER MICHIGAN

CITY           SKY/WX    TMP DP  RH WIND       PRES   REMARKS
ALPENA         FLURRIES  12   5  73 NW17G26   29.76R WCI  -5
6HR MIN TEMP:  12; 6HR MAX TEMP:  25; 6HR PCP:  0.01;

BEAVER ISLAND  MOCLDY    13   3  65 N14G24    29.91R WCI  -2
6HR MIN TEMP:  13; 6HR MAX TEMP:  19;

BELLAIRE       MOCLDY    15   3  60 N14G24    29.89R WCI   0
6HR MIN TEMP:  14; 6HR MAX TEMP:  23;

CADILLAC       LGT SNOW  13   9  83 NW10G22   29.81R WCI   0
CHARLEVOIX     CLOUDY    15   5  64 N24G31    29.91R HAZE    WCI  -3
6HR MIN TEMP:  15; 6HR MAX TEMP:  22;

FRANKFORT      LGT SNOW  19  13  77 N13G26    29.93R WCI   6
GAYLORD        CLOUDY     7  -1  70 N10G20    29.79R WCI  -8
6HR MIN TEMP:   7; 6HR MAX TEMP:  19; 6HR PCP: TRACE;

GRAYLING       CLOUDY    12   2  64 NW23G31   29.79S HAZE    WCI  -7
6HR MIN TEMP:  12; 6HR MAX TEMP:  21;

HARBOR SPRINGS CLOUDY    10   1  66 N9G21     29.88R WCI  -3
HOUGHTON LAKE  PTCLDY    12   2  64 N20G29    29.79R WCI  -6
6HR MIN TEMP:  12; 6HR MAX TEMP:  23; 6HR PCP: TRACE;

MANISTEE       LGT SNOW  18   8  65 N20G30    29.92R WCI   2
OSCODA         PTCLDY    13   1  59 NW21G30   29.74R WCI  -5
6HR MIN TEMP:  13; 6HR MAX TEMP:  26;

PELLSTON       MOCLDY     9   1  70 N22G29    29.88R WCI -11
6HR MIN TEMP:   9; 6HR MAX TEMP:  18; 6HR PCP: TRACE;

ROGERS CITY    CLOUDY    11   5  78 N21G32    29.80R WCI  -8
TRAVERSE CITY  LGT SNOW  17   8  67 N21G32    29.88R BLWGSNOWWCI   0
6HR MIN TEMP:  17; 6HR MAX TEMP:  24; 6HR PCP:  0.01;

$$
MIZ007>008-015-121300-
EASTERN UPPER MICHIGAN

CITY           SKY/WX    TMP DP  RH WIND       PRES   REMARKS
KINROSS        CLEAR      1  -5  75 N18G25    29.86R WCI -20
6HR MIN TEMP:   1; 6HR MAX TEMP:  18;

MACKINAC ISLAN CLOUDY    10   3  73 N17G29    29.85R HAZE    WCI  -8
6HR MIN TEMP:  10; 6HR MAX TEMP:  20;

NEWBERRY       LGT SNOW   7   5  90 N10G18    29.89R WCI  -7
6HR MIN TEMP:   7; 6HR MAX TEMP:  13;

S. S. MARIE    CLEAR      1  -8  66 NW15G22   29.87R WCI -18
6HR MIN TEMP:   1; 6HR MAX TEMP:  18; 6HR PCP: TRACE;

MUNISING         N/A     18  13  80 N26G36    29.95R WCI  -1
6HR MIN TEMP:  17; 6HR MAX TEMP:  20; 6HR PCP:  0.02;

$$
MIZ004>006-011>014-085-121300-
CENTRAL UPPER MICHIGAN

CITY           SKY/WX    TMP DP  RH WIND       PRES   REMARKS
MANISTIQUE     LGT SNOW  10   6  81 N14G20    29.93R WCI  -5
6HR MIN TEMP:  10; 6HR MAX TEMP:  15;

ESCANABA       MOCLDY    10  -1  61 NW13G18   29.99R WCI  -5
6HR MIN TEMP:  10; 6HR MAX TEMP:  15; 6HR PCP: TRACE;

MENOMINEE      CLOUDY    12   1  61 N16G23    30.05R WCI  -5
6HR MIN TEMP:  12; 6HR MAX TEMP:  16; 6HR PCP: TRACE;

SAWYER-GWINN   LGT SNOW   9   5  85 NW17      29.95R WCI -10
$$
MIZ001>003-009>011-084-121300-
WESTERN UPPER MICHIGAN

CITY           SKY/WX    TMP DP  RH WIND       PRES   REMARKS
IRON MOUNTAIN  CLOUDY    10   2  69 NW17G26   29.98S WCI  -8
6HR MIN TEMP:  10; 6HR MAX TEMP:  14; 6HR PCP: TRACE;

HOUGHTON       LGT SNOW  10   1  67 NW13      30.01R WCI  -5
6HR MIN TEMP:   9; 6HR MAX TEMP:  10; 6HR PCP:  0.01;

COPPER HARBOR    N/A     14   8  77 N24G37    30.02S WCI  -5
6HR MIN TEMP:  13; 6HR MAX TEMP:  16;

IRONWOOD       FLURRIES  11   5  77 NW12      30.06S WCI  -3
6HR MIN TEMP:  11; 6HR MAX TEMP:  13;

$$

ABBREVIATIONS USED IN REMARKS
   TC - TEMPERATURE IN CELSIUS
  WCI - WIND CHILL INDEX
   HX - HEAT INDEX
  VSB - VISIBILITY





USA.gov is the U.S. government's official web portal to all federal, state and local government web resources and services.